Regional Weather Roundup
Issued by NWS

Home | Current Version | Previous Version | Text Only | Print | Product List | Glossary On
Versions: 1 2 3 4 5 6 7 8 9 10 11 12 13 14 15 16 17 18 19 20 21 22 23 24 25 26 27 28 29 30 31 32 33 34 35 36 37 38 39 40 41 42 43 44 45 46 47 48 49 50
000
ASUS44 KMEG 222110
RWRTN
TENNESSEE HOURLY STATE WEATHER ROUNDUP
NATIONAL WEATHER SERVICE MEMPHIS TN
400 PM CDT WED OCT 22 2014

TNZ002-004-019-021-049-052-054-088>092-222200-
WEST TENNESSEE

CITY           SKY/WX    TMP DP  RH WIND       PRES   REMARKS
MEMPHIS INTL   SUNNY     69  41  36 N9        30.18F
NWS MEMPHIS      N/A     67 N/A N/A MISG        N/A
JACKSON        SUNNY     67  41  38 NE8       30.19F
DYERSBURG      SUNNY     64  37  36 NE10      30.21F
UNION CITY     SUNNY     63  39  42 NE6       30.20F
PARIS          SUNNY     61  39  44 NE10      30.21S
HUNTINGDON     SUNNY     62  40  44 VRB5      30.20F
LEXINGTON      SUNNY     63  41  45 VRB7      30.18S
SAVANNAH       SUNNY     66  41  39 N9        30.17S
$$

TNZ008-025-027-028-033-062-065-066-222200-
NORTH MIDDLE TENNESSEE

CITY           SKY/WX    TMP DP  RH WIND       PRES   REMARKS
NASHVILLE      SUNNY     63  41  44 NE9       30.20F
CLARKSVILLE    SUNNY     63  40  42 VRB6      30.20F
SMYRNA         SUNNY     63  42  46 N7        30.20F
COOKEVILLE     SUNNY     61  43  51 NE8       30.18S
CROSSVILLE     SUNNY     59  38  45 NE12      30.18F
$$

TNZ061-075-076-078-094-096-097-222200-
SOUTH MIDDLE TENNESSEE

CITY           SKY/WX    TMP DP  RH WIND       PRES   REMARKS
FAYETTEVILLE   SUNNY     63  39  42 NE10      30.16F
TULLAHOMA      SUNNY     61  39  44 NE9       30.17S
WINCHESTER     SUNNY     61  41  48 N10       30.16S
MCMINNVILLE    SUNNY     61  43  51 CALM      30.18S
COLUMBIA       SUNNY     64  43  45 NE7       30.16F
SHELBYVILLE    SUNNY     63  45  51 NE10      30.18F
$$

TNZ017-018-042-046-047-222200-
NORTHEAST TENNESSEE

CITY           SKY/WX    TMP DP  RH WIND       PRES   REMARKS
TRI CITIES     CLOUDY    50  40  68 N5        30.20S
ELIZABETHTON   CLOUDY    46  39  76 NW8       30.19S
$$

TNZ012-013-036-069-073-074-222200-
CENTRAL EAST TENNESSEE

CITY           SKY/WX    TMP DP  RH WIND       PRES   REMARKS
KNOXVILLE      MOSUNNY   60  40  47 E7        30.16S
OAK RIDGE      SUNNY     62  41  46 VRB6      30.19R
GATLINBURG     MOCLDY    57  37  47 NE6       30.17S
MORRISTOWN     CLEAR     55  41  58 N10       30.19S
$$

TNZ083-085-099-222200-
SOUTHEAST TENNESSEE

CITY           SKY/WX    TMP DP  RH WIND       PRES   REMARKS
CHATTANOOGA    SUNNY     64  41  42 N12       30.14F
$$

SKY/WX REPORTED AS FAIR MEANS FEW OR NO CLOUDS BELOW
12 THOUSAND FEET.




USA.gov is the U.S. government's official web portal to all federal, state and local government web resources and services.